Tracking 20942 objects as of 10-Jul-2020
HD Live streaming from Space Station
objects crossing your sky now

ONEWEB-0058

Track ONEWEB-0058 now!
10-day predictions
ONEWEB-0058 is classified as:


NORAD ID: 45161
Int'l Code: 2020-008AG
Perigee: 586.4 km
Apogee: 618.3 km
Inclination: 87.5 °
Period: 96.6 minutes
Semi major axis: 6973 km
RCS: Unknown
Launch date: February 6, 2020
Source: United Kingdom (UK)
Launch site: TYURATAM MISSILE AND SPACE COMPLEX (TTMTR)
aabbcc
Your satellite tracking list
Your tracking list is empty




NASA's NSSDC Master Catalog

Two Line Element Set (TLE):
1 45161U 20008AG  20192.25001157  .00033220  00000-0  33415-2 0  9990
2 45161  87.5362 114.7497 0022931 105.0966 302.2044 14.90871620 23948
Source of the keplerian elements: AFSPC